Location: Kimberly
(42.5380°N, 114.3640°W)
Time: 23:56:01
(UTC-06:00)

ISS - Visible Passes

Search period start: 21 May 2018 00:00
Search period end: 31 May 2018 00:00
Orbit: 402 x 407 km, 51.6° (Epoch: 23 May)

Date Brightness Start Highest point End Pass type
(mag) Time Alt. Az. Time Alt. Az. Time Alt. Az.
21 May -1.4 00:27:02 10° WNW 00:29:45 23° NNW 00:32:27 10° NE visible
21 May -0.8 02:04:52 10° NW 02:07:04 17° N 02:09:15 10° NE visible
21 May -1.9 03:41:17 10° NW 03:44:16 32° NNE 03:47:15 10° E visible
21 May -3.4 05:17:44 10° WNW 05:20:49 39° SW 05:23:52 10° SSE visible
21 May -3.4 21:57:48 10° SSW 22:00:53 40° SE 22:03:59 10° ENE visible
21 May -1.9 23:34:28 10° W 23:37:26 31° NNW 23:40:24 10° NE visible
22 May -0.7 01:12:27 10° NW 01:14:38 16° N 01:16:50 10° NE visible
22 May -1.3 02:49:16 10° NW 02:51:58 23° NNE 02:54:40 10° ENE visible
22 May -4.0 04:25:28 10° WNW 04:28:45 77° SW 04:31:59 10° SE visible
22 May -2.8 22:42:00 10° WSW 22:45:10 48° NNW 22:48:22 10° NE visible
23 May -0.9 00:19:53 10° NW 00:22:13 18° N 00:24:34 10° NE visible
23 May -1.0 01:57:09 10° NW 01:59:35 19° NNE 02:02:01 10° ENE visible
23 May -3.3 03:33:20 10° NW 03:36:35 59° NNE 03:39:48 10° ESE visible
23 May -2.3 05:10:32 10° W 05:12:46 17° SW 05:14:59 10° S visible
23 May -3.8 21:49:42 10° WSW 21:52:57 84° NW 21:56:14 10° NE visible
23 May -1.1 23:27:13 10° WNW 23:29:50 21° NNW 23:32:25 10° NE visible
24 May -0.8 01:04:55 10° NW 01:07:10 17° N 01:09:24 10° NE visible
24 May -1.6 02:41:15 10° NW 02:42:45 22° NNW 02:42:45 22° NNW visible
24 May -1.6 22:34:34 10° W 22:37:27 28° NNW 22:40:20 10° NE visible
25 May -0.8 00:12:32 10° NW 00:14:43 16° N 00:16:53 10° NE visible
25 May -1.4 01:49:11 10° NW 01:51:17 24° N 01:51:17 24° N visible
25 May -2.3 21:42:01 10° W 21:45:08 40° NNW 21:48:15 10° NE visible
25 May -0.8 23:19:58 10° NW 23:22:15 17° N 23:24:31 10° NE visible
26 May -1.3 00:57:04 10° NW 00:59:36 20° NNE 01:00:20 19° NNE visible
26 May -1.0 22:27:17 10° WNW 22:29:48 20° NNW 22:32:18 10° NE visible
27 May -1.0 00:04:51 10° NW 00:07:09 17° N 00:09:27 10° NE visible
27 May -1.2 01:41:06 10° NW 01:42:10 18° NW 01:42:10 18° NW visible
27 May -1.4 21:34:35 10° WNW 21:37:22 25° NNW 21:40:09 10° NE visible
27 May -0.9 23:12:29 10° NW 23:14:39 16° N 23:16:50 10° NE visible
28 May -1.8 00:49:00 10° NW 00:51:29 28° N 00:51:29 28° N visible
28 May -0.9 22:19:55 10° NW 22:22:09 17° N 22:24:23 10° NE visible
28 May -1.5 23:56:51 10° NW 23:59:29 22° NNE 00:00:49 17° NE visible
29 May -0.9 01:33:03 10° NW 01:33:28 13° NW 01:33:28 13° NW visible
29 May -1.2 23:04:38 10° NW 23:07:01 18° N 23:09:23 10° ENE visible
30 May -2.0 00:40:51 10° NW 00:42:51 31° NNW 00:42:51 31° NNW visible
30 May -1.0 22:12:17 10° NW 22:14:30 17° N 22:16:42 10° NE visible
30 May -2.4 23:48:41 10° NW 23:51:41 33° NNE 23:52:15 30° NE visible
